Location: Caltech
(34.1382°N, 118.1253°W)
Time: 08:19:49
(UTC-07:00)

Cosmos 2219 Rocket - Visible Passes

Search period start: 17 August 2017 00:00
Search period end: 27 August 2017 00:00
Orbit: 828 x 847 km, 71.0° (Epoch: 17 August)

Date Brightness Start Highest point End Pass type
(mag) Time Alt. Az. Time Alt. Az. Time Alt. Az.
17 Aug 4.9 01:10:36 11° NW 01:10:36 11° NW 01:11:21 10° NNW visible
17 Aug 4.3 23:12:32 19° NNE 23:12:32 19° NNE 23:14:01 10° NNE visible
18 Aug 4.9 00:54:13 12° NW 00:54:13 12° NW 00:55:25 10° NNW visible
18 Aug 4.2 22:56:05 19° NNE 22:56:05 19° NNE 22:57:39 10° NNE visible
19 Aug 4.8 00:37:45 13° NW 00:37:45 13° NW 00:39:23 10° NNW visible
19 Aug 4.1 22:39:32 21° NNE 22:39:32 21° NNE 22:41:17 10° NNE visible
20 Aug 4.8 00:21:12 14° NW 00:21:12 14° NW 00:23:17 10° NNW visible
20 Aug 3.9 22:22:53 23° NNE 22:22:53 23° NNE 22:24:54 10° NNE visible
21 Aug 4.7 00:04:33 16° NW 00:04:33 16° NW 00:07:10 10° NNW visible
21 Aug 3.6 22:06:05 26° NE 22:06:05 26° NE 22:08:31 10° NNE visible
21 Aug 4.5 23:47:43 18° NW 23:47:43 18° NW 23:51:01 10° NNW visible
22 Aug 3.3 21:49:03 31° NE 21:49:03 31° NE 21:52:07 10° NNE visible
22 Aug 4.4 23:30:40 19° WNW 23:30:52 19° WNW 23:34:51 10° NNW visible
23 Aug 2.7 21:31:38 40° ENE 21:31:38 40° ENE 21:35:43 10° NNE visible
23 Aug 4.3 23:13:13 19° WNW 23:14:27 21° WNW 23:18:38 10° N visible
24 Aug 2.4 21:13:23 43° ESE 21:13:57 44° ESE 21:19:18 10° NE visible
24 Aug 4.3 22:54:52 14° W 22:58:04 22° WNW 23:02:26 10° N visible
25 Aug 2.5 20:52:24 10° S 20:57:38 40° ESE 21:02:53 10° NE visible
25 Aug 4.2 22:37:09 10° WSW 22:41:40 24° WNW 22:46:12 10° N visible
26 Aug 5.6 05:53:10 10° NE 05:53:55 10° NE 05:54:41 10° ENE visible
26 Aug 2.6 20:36:10 10° S 20:41:18 37° ESE 20:46:27 10° NE visible
26 Aug 4.1 22:20:36 10° WSW 22:25:16 26° WNW 22:29:58 10° N visible
